Weather History for KAVL - June, 2006

Change the Weather History Date:

Saturday, June 3, 2006

  Actual Average Record
Temperature  
Mean Temperature 66 °F 68 °F  
Max Temperature 73 °F 79 °F 95 °F (1951)
Min Temperature 57 °F 57 °F 41 °F (1966)
Degree Days  
Heating Degree Days 0 1  
Month to date heating degree days 3  
Since 1 June heating degree days 3  
Since 1 July heating degree days 4184  
Cooling Degree Days 2 4  
Month to date cooling degree days 12  
Year to date cooling degree days 70  
Since 1 June cooling degree days 12  
Growing Degree Days 16 (Base 50)    
Moisture  
Dew Point 53 °F    
Average Humidity 66    
Maximum Humidity 94    
Minimum Humidity 41    
Precipitation  
Precipitation 0.01 in 0.15 in 2.66 in (1909)
Month to date precipitation 0.43  
Year to date precipitation 18.68  
Snow  
Snow 0.00 in 0.00 in 0.00 in ()
Month to date snowfall 0.0  
Since 1 June snowfall 0.0  
Since 1 July snowfall 9.9  
Snow Depth -    
Sea Level Pressure  
Sea Level Pressure 29.88 in    
Wind  
Wind Speed 10 mph (NNW)    
Max Wind Speed 21 mph    
Max Gust Speed 28 mph    
Visibility 10 miles    
Events Rain    
T = Trace of Precipitation, MM = Missing Value Source: NWS Daily Summary

Daily Weather History Graph

Daily Weather History Graph

Search for Another Location

Airport or City:

Trip Planner

Search our weather history database for the weather conditions in past years. The results will help you decide how hot, cold, wet, or windy it might be!

Date:

Astronomy

Jun. 03, 2006 Rise Set
Actual Time 6:15 AM EDT 8:41 PM EDT
Civil Twilight 5:46 AM EDT 9:10 PM EDT
Nautical Twilight 5:09 AM EDT 9:47 PM EDT
Astronomical Twilight 4:29 AM EDT 10:27 PM EDT
Moon 1:05 PM EDT (6/3) 1:47 AM EDT (6/3)
Length of Visible Light 15h 24m
Length of Day
14h 25m
Waxing Crescent, 47% of the Moon is Illuminated
Jun 3
Waxing Crescent
Jun 3
First Quarter
Jun 11
Full
Jun 18
Last Quarter
Jun 25
New

Hourly Weather History & Observations

Time (EDT) Temp. Dew Point Humidity Pressure Visibility Wind Dir Wind Speed Gust Speed Precip Events Conditions
1:54 AM 63.0 °F 60.1 °F 90% 29.83 in 7.0 mi NNW 5.8 mph - N/A   Overcast
2:54 AM 63.0 °F 60.1 °F 90% 29.82 in 6.0 mi NNW 6.9 mph - N/A   Scattered Clouds
3:18 AM 62.6 °F 60.8 °F 94% 29.89 in 5.0 mi NNW 8.1 mph - 0.00 in Rain Light Rain
3:54 AM 62.1 °F 57.9 °F 86% 29.81 in 10.0 mi NNW 11.5 mph 19.6 mph 0.01 in   Overcast
4:54 AM 61.0 °F 55.9 °F 83% 29.83 in 10.0 mi North 8.1 mph 17.3 mph N/A   Overcast
5:54 AM 60.1 °F 55.9 °F 86% 29.83 in 10.0 mi North 10.4 mph - N/A   Mostly Cloudy
6:24 AM 60.8 °F 55.4 °F 82% 29.90 in 10.0 mi North 9.2 mph - N/A   Overcast
6:54 AM 61.0 °F 55.9 °F 83% 29.86 in 10.0 mi North 6.9 mph - N/A   Overcast
7:54 AM 62.1 °F 54.0 °F 75% 29.87 in 10.0 mi NNW 11.5 mph - N/A   Mostly Cloudy
8:15 AM 62.6 °F 53.6 °F 72% 29.93 in 10.0 mi NNW 11.5 mph - N/A   Mostly Cloudy
8:54 AM 64.0 °F 53.1 °F 67% 29.88 in 10.0 mi NNW 15.0 mph 23.0 mph N/A   Clear
9:54 AM 64.9 °F 52.0 °F 63% 29.89 in 10.0 mi NNW 18.4 mph 27.6 mph N/A   Clear
10:54 AM 66.9 °F 52.0 °F 59% 29.89 in 10.0 mi NNW 16.1 mph 24.2 mph N/A   Clear
11:54 AM 69.1 °F 52.0 °F 54% 29.90 in 10.0 mi North 17.3 mph 27.6 mph N/A   Partly Cloudy
12:54 PM 71.1 °F 51.1 °F 49% 29.90 in 10.0 mi NNW 20.7 mph 25.3 mph N/A   Clear
1:54 PM 71.1 °F 50.0 °F 47% 29.88 in 10.0 mi NNW 18.4 mph 27.6 mph N/A   Partly Cloudy
2:54 PM 72.0 °F 51.1 °F 48% 29.88 in 10.0 mi NNW 16.1 mph 23.0 mph N/A   Clear
3:54 PM 73.0 °F 48.9 °F 42% 29.87 in 10.0 mi NNW 19.6 mph 26.5 mph N/A   Partly Cloudy
4:54 PM 73.0 °F 48.9 °F 42% 29.87 in 10.0 mi NW 15.0 mph 21.9 mph N/A   Partly Cloudy
5:54 PM 70.0 °F 46.9 °F 44% 29.88 in 10.0 mi NNW 12.7 mph - N/A   Clear
6:54 PM 72.0 °F 46.9 °F 41% 29.86 in 10.0 mi NNW 13.8 mph 17.3 mph N/A   Clear
7:54 PM 69.1 °F 46.9 °F 45% 29.88 in 10.0 mi NNW 9.2 mph - N/A   Clear
8:54 PM 64.9 °F 48.9 °F 56% 29.88 in 10.0 mi North 4.6 mph - N/A   Clear
9:54 PM 63.0 °F 50.0 °F 63% 29.90 in 10.0 mi Calm Calm - N/A   Clear
10:54 PM 61.0 °F 50.0 °F 67% 29.91 in 10.0 mi NNW 3.5 mph - N/A   Clear
11:54 PM 57.0 °F 52.0 °F 83% 29.92 in 10.0 mi Calm Calm - N/A   Clear